| time (UTC) | temp F | wind direction | speed knots | gust knots | rain 1hr in | rain 24hr in | rain mn in | humidity % | barometer mb |
| 20260831232016 | 77 | 188 | 0.0 | 1.7 | 0.01 | 0.04 | 0.04 | 81 | 1011.5 |
| 20260831231517 | 77 | 188 | 0.0 | 5.2 | 0.01 | 0.04 | 0.04 | 81 | 1011.3 |
| 20260831231016 | 77 | 173 | 0.9 | 6.1 | 0.01 | 0.04 | 0.04 | 81 | 1011.4 |
| 20260831230535 | 77 | 166 | 0.9 | 6.1 | 0.01 | 0.04 | 0.04 | 81 | 1011.4 |
| 20260831230017 | 77 | 177 | 2.6 | 6.1 | 0.01 | 0.04 | 0.04 | 80 | 1011.5 |
| 20260831225515 | 77 | 184 | 1.7 | 7.0 | 0.01 | 0.04 | 0.04 | 80 | 1011.7 |
| 20260831225015 | 77 | 176 | 2.6 | 7.0 | 0.01 | 0.04 | 0.04 | 79 | 1011.6 |
| 20260831224537 | 77 | 162 | 1.7 | 7.8 | 0.01 | 0.04 | 0.04 | 79 | 1011.6 |
| 20260831224016 | 78 | 157 | 3.5 | 8.7 | 0.01 | 0.04 | 0.04 | 78 | 1011.4 |
| 20260831223516 | 78 | 156 | 3.5 | 8.7 | 0.01 | 0.04 | 0.04 | 78 | 1011.3 |
| 20260831223016 | 78 | 144 | 2.6 | 7.0 | 0.02 | 0.04 | 0.04 | 78 | 1011.3 |
| 20260831222517 | 78 | 159 | 2.6 | 7.0 | 0.01 | 0.03 | 0.03 | 78 | 1011.5 |
| 20260831222016 | 78 | 165 | 2.6 | 5.2 | 0.01 | 0.03 | 0.03 | 78 | 1011.6 |
| 20260831221515 | 78 | 152 | 2.6 | 4.3 | 0.01 | 0.03 | 0.03 | 77 | 1011.4 |
| 20260831221037 | 79 | 151 | 1.7 | 7.8 | 0.01 | 0.03 | 0.03 | 77 | 1011.6 |
| 20260831220515 | 79 | 169 | 2.6 | 7.8 | 0.01 | 0.03 | 0.03 | 77 | 1011.6 |
| 20260831220017 | 79 | 166 | 1.7 | 9.6 | 0.01 | 0.03 | 0.03 | 77 | 1011.7 |
| 20260831215536 | 79 | 181 | 3.5 | 9.6 | 0.02 | 0.03 | 0.03 | 77 | 1011.9 |
| 20260831215015 | 79 | 188 | 3.5 | 8.7 | 0.02 | 0.03 | 0.03 | 77 | 1012.0 |
| 20260831214516 | 80 | 184 | 3.5 | 7.8 | 0.02 | 0.03 | 0.03 | 76 | 1012.0 |
| 20260831214036 | 80 | 186 | 2.6 | 7.0 | 0.02 | 0.03 | 0.03 | 78 | 1012.1 |
| 20260831213515 | 80 | 180 | 1.7 | 5.2 | 0.02 | 0.03 | 0.03 | 77 | 1012.0 |
| 20260831213015 | 80 | 176 | 2.6 | 7.0 | 0.01 | 0.02 | 0.02 | 78 | 1012.0 |
| 20260831212516 | 80 | 174 | 1.7 | 7.0 | 0.01 | 0.02 | 0.02 | 78 | 1011.9 |
| 20260831212015 | 80 | 187 | 2.6 | 5.2 | 0.01 | 0.02 | 0.02 | 78 | 1011.9 |
| 20260831211515 | 80 | 165 | 0.9 | 4.3 | 0.01 | 0.02 | 0.02 | 79 | 1011.9 |
| 20260831211017 | 80 | 139 | 1.7 | 4.3 | 0.01 | 0.02 | 0.02 | 80 | 1011.8 |
| 20260831210515 | 80 | 134 | 2.6 | 4.3 | 0.01 | 0.02 | 0.02 | 80 | 1012.0 |
| 20260831210015 | 80 | 141 | 1.7 | 4.3 | 0.01 | 0.02 | 0.02 | 78 | 1012.1 |
| 20260831205515 | 81 | 147 | 0.9 | 1.7 | 0.00 | 0.01 | 0.01 | 78 | 1012.3 |
| 20260831205015 | 82 | 116 | 0.0 | 2.6 | 0.00 | 0.01 | 0.01 | 73 | 1012.4 |
| 20260831204515 | 82 | 80 | 0.9 | 5.2 | 0.00 | 0.01 | 0.01 | 71 | 1012.4 |
| 20260831204015 | 82 | 187 | 1.7 | 7.8 | 0.00 | 0.01 | 0.01 | 67 | 1012.4 |
| 20260831203516 | 83 | 174 | 3.5 | 7.8 | 0.00 | 0.01 | 0.01 | 65 | 1012.3 |
| 20260831203015 | 83 | 182 | 3.5 | 7.8 | 0.00 | 0.01 | 0.01 | 63 | 1012.2 |
| 20260831202517 | 84 | 184 | 3.5 | 8.7 | 0.00 | 0.01 | 0.01 | 61 | 1012.1 |
| 20260831202015 | 84 | 186 | 3.5 | 8.7 | 0.00 | 0.01 | 0.01 | 60 | 1012.4 |
| 20260831201515 | 84 | 190 | 4.3 | 7.0 | 0.00 | 0.01 | 0.01 | 57 | 1012.2 |
| 20260831201015 | 85 | 183 | 4.3 | 8.7 | 0.00 | 0.01 | 0.01 | 57 | 1012.3 |
| 20260831200536 | 85 | 199 | 5.2 | 8.7 | 0.00 | 0.01 | 0.01 | 57 | 1012.3 |
| 20260831200035 | 85 | 202 | 5.2 | 8.7 | 0.00 | 0.01 | 0.01 | 54 | 1012.3 |
| 20260831195515 | 86 | 197 | 3.5 | 9.6 | 0.00 | 0.01 | 0.01 | 54 | 1012.2 |
| 20260831195016 | 86 | 194 | 3.5 | 14.8 | 0.00 | 0.01 | 0.01 | 55 | 1012.1 |
| 20260831194515 | 87 | 171 | 6.1 | 14.8 | 0.00 | 0.01 | 0.01 | 55 | 1011.9 |
| 20260831194015 | 87 | 190 | 3.5 | 10.4 | 0.00 | 0.01 | 0.01 | 56 | 1012.0 |
| 20260831193515 | 87 | 182 | 5.2 | 10.4 | 0.00 | 0.01 | 0.01 | 56 | 1012.1 |
| 20260831193015 | 87 | 200 | 4.3 | 10.4 | 0.00 | 0.01 | 0.01 | 58 | 1012.0 |
| 20260831192515 | 86 | 184 | 4.3 | 10.4 | 0.00 | 0.01 | 0.01 | 58 | 1012.1 |
| 20260831192016 | 86 | 156 | 4.3 | 11.3 | 0.00 | 0.01 | 0.01 | 60 | 1012.2 |
| 20260831191515 | 85 | 180 | 7.0 | 12.2 | 0.00 | 0.01 | 0.01 | 59 | 1012.2 |
| 20260831191016 | 84 | 191 | 5.2 | 12.2 | 0.00 | 0.01 | 0.01 | 61 | 1012.3 |
| 20260831190515 | 84 | 168 | 4.3 | 9.6 | 0.00 | 0.01 | 0.01 | 62 | 1012.2 |
| 20260831190015 | 83 | 174 | 4.3 | 12.2 | 0.00 | 0.01 | 0.01 | 61 | 1012.1 |
| 20260831185555 | 84 | 186 | 5.2 | 13.0 | 0.00 | 0.01 | 0.01 | 59 | 1012.2 |
| 20260831185015 | 84 | 179 | 7.8 | 15.6 | 0.00 | 0.01 | 0.01 | 59 | 1012.3 |
| 20260831184516 | 84 | 173 | 7.8 | 15.6 | 0.00 | 0.01 | 0.01 | 61 | 1012.3 |
| 20260831184036 | 84 | 167 | 7.0 | 13.9 | 0.00 | 0.01 | 0.01 | 62 | 1012.4 |
| 20260831183515 | 83 | 172 | 6.1 | 13.9 | 0.00 | 0.02 | 0.01 | 64 | 1012.5 |
| 20260831183015 | 82 | 162 | 4.3 | 8.7 | 0.00 | 0.02 | 0.01 | 67 | 1012.6 |
| 20260831182515 | 82 | 164 | 5.2 | 12.2 | 0.00 | 0.02 | 0.01 | 65 | 1012.5 |
| 20260831182015 | 82 | 171 | 3.5 | 12.2 | 0.00 | 0.02 | 0.01 | 67 | 1012.7 |
| 20260831181515 | 81 | 163 | 3.5 | 15.6 | 0.00 | 0.03 | 0.01 | 70 | 1012.7 |
| 20260831181015 | 81 | 178 | 4.3 | 15.6 | 0.00 | 0.04 | 0.01 | 67 | 1012.6 |
| 20260831180516 | 81 | 173 | 5.2 | 12.2 | 0.00 | 0.04 | 0.01 | 67 | 1012.8 |
| 20260831180015 | 81 | 184 | 5.2 | 11.3 | 0.00 | 0.05 | 0.01 | 66 | 1012.9 |
| 20260831175515 | 81 | 171 | 6.1 | 11.3 | 0.00 | 0.05 | 0.01 | 66 | 1013.1 |
| 20260831175015 | 81 | 178 | 6.1 | 11.3 | 0.00 | 0.06 | 0.01 | 65 | 1013.3 |
| 20260831174535 | 81 | 185 | 6.1 | 10.4 | 0.00 | 0.06 | 0.01 | 67 | 1013.4 |
| 20260831174016 | 81 | 195 | 4.3 | 11.3 | 0.00 | 0.07 | 0.01 | 70 | 1013.4 |
| 20260831173515 | 80 | 170 | 5.2 | 11.3 | 0.00 | 0.08 | 0.01 | 71 | 1013.4 |
| 20260831173016 | 79 | 180 | 4.3 | 10.4 | 0.00 | 0.08 | 0.01 | 72 | 1013.5 |
| 20260831172517 | 79 | 182 | 5.2 | 12.2 | 0.00 | 0.08 | 0.01 | 71 | 1013.4 |
| 20260831172017 | 79 | 183 | 6.1 | 13.9 | 0.00 | 0.09 | 0.01 | 72 | 1013.5 |
| 20260831171517 | 79 | 193 | 6.1 | 13.9 | 0.00 | 0.09 | 0.01 | 73 | 1013.4 |
| 20260831171017 | 79 | 184 | 7.0 | 14.8 | 0.00 | 0.10 | 0.01 | 73 | 1013.4 |
| 20260831170517 | 79 | 178 | 6.1 | 14.8 | 0.00 | 0.10 | 0.01 | 75 | 1013.6 |
| 20260831170017 | 78 | 178 | 5.2 | 10.4 | 0.00 | 0.10 | 0.01 | 78 | 1013.7 |
| 20260831165518 | 77 | 199 | 5.2 | 9.6 | 0.00 | 0.10 | 0.01 | 78 | 1013.8 |
| 20260831165017 | 77 | 177 | 5.2 | 13.9 | 0.00 | 0.11 | 0.01 | 80 | 1013.9 |
| 20260831164517 | 76 | 174 | 6.1 | 13.9 | 0.00 | 0.11 | 0.01 | 82 | 1014.0 |
| 20260831164037 | 75 | 174 | 4.3 | 11.3 | 0.00 | 0.12 | 0.01 | 83 | 1014.1 |
| 20260831163517 | 74 | 166 | 3.5 | 7.8 | 0.00 | 0.12 | 0.01 | 87 | 1014.1 |
| 20260831163017 | 73 | 153 | 3.5 | 7.8 | 0.00 | 0.13 | 0.01 | 86 | 1014.1 |
| 20260831162518 | 73 | 150 | 3.5 | 7.0 | 0.00 | 0.15 | 0.01 | 87 | 1014.0 |
| 20260831162038 | 73 | 146 | 3.5 | 6.1 | 0.00 | 0.15 | 0.01 | 87 | 1014.1 |
| 20260831161538 | 73 | 140 | 2.6 | 4.3 | 0.00 | 0.16 | 0.01 | 87 | 1014.2 |
| 20260831161017 | 72 | 140 | 2.6 | 4.3 | 0.00 | 0.16 | 0.01 | 87 | 1014.2 |
| 20260831160518 | 72 | 165 | 1.7 | 7.0 | 0.00 | 0.17 | 0.01 | 87 | 1014.4 |
| 20260831160057 | 72 | 149 | 2.6 | 7.0 | 0.00 | 0.18 | 0.01 | 87 | 1014.3 |
| 20260831155517 | 72 | 145 | 2.6 | 4.3 | 0.00 | 0.18 | 0.01 | 87 | 1014.4 |
| 20260831155017 | 72 | 164 | 0.9 | 4.3 | 0.00 | 0.19 | 0.01 | 87 | 1014.4 |
| 20260831154539 | 72 | 144 | 1.7 | 7.0 | 0.00 | 0.19 | 0.01 | 87 | 1014.4 |
| 20260831154017 | 72 | 140 | 3.5 | 7.0 | 0.00 | 0.20 | 0.01 | 87 | 1014.4 |
| 20260831153518 | 72 | 150 | 1.7 | 5.2 | 0.00 | 0.20 | 0.01 | 87 | 1014.6 |
| 20260831153037 | 72 | 194 | 0.0 | 3.5 | 0.00 | 0.21 | 0.01 | 87 | 1014.8 |
| 20260831152518 | 72 | 192 | 0.9 | 5.2 | 0.00 | 0.22 | 0.01 | 88 | 1014.9 |
| 20260831152017 | 72 | 150 | 2.6 | 5.2 | 0.00 | 0.22 | 0.01 | 88 | 1014.8 |
| 20260831151517 | 72 | 137 | 2.6 | 4.3 | 0.00 | 0.23 | 0.01 | 88 | 1014.6 |
| 20260831151017 | 72 | 144 | 1.7 | 4.3 | 0.00 | 0.24 | 0.01 | 88 | 1014.9 |
| 20260831150517 | 72 | 140 | 1.7 | 4.3 | 0.01 | 0.24 | 0.01 | 87 | 1014.8 |
| 20260831150017 | 72 | 160 | 1.7 | 4.3 | 0.01 | 0.25 | 0.01 | 87 | 1014.9 |
| 20260831145517 | 72 | 150 | 2.6 | 5.2 | 0.01 | 0.25 | 0.01 | 87 | 1014.8 |
| 20260831145017 | 72 | 154 | 1.7 | 6.1 | 0.01 | 0.26 | 0.01 | 88 | 1014.7 |
| 20260831144517 | 72 | 163 | 0.9 | 6.1 | 0.01 | 0.26 | 0.01 | 89 | 1014.7 |
| 20260831144017 | 72 | 150 | 0.9 | 3.5 | 0.01 | 0.27 | 0.01 | 89 | 1014.7 |
| 20260831143517 | 71 | 132 | 0.9 | 5.2 | 0.01 | 0.27 | 0.01 | 89 | 1014.7 |
| 20260831143016 | 71 | 163 | 1.7 | 5.2 | 0.01 | 0.28 | 0.01 | 89 | 1014.8 |
| 20260831142538 | 71 | 218 | 0.0 | 4.3 | 0.01 | 0.28 | 0.01 | 90 | 1014.7 |
| 20260831142017 | 71 | 348 | 1.7 | 4.3 | 0.01 | 0.29 | 0.01 | 90 | 1014.7 |
| 20260831141517 | 70 | 28 | 0.9 | 3.5 | 0.01 | 0.29 | 0.01 | 90 | 1014.4 |
| 20260831141016 | 70 | 159 | 0.0 | 7.8 | 0.01 | 0.29 | 0.01 | 90 | 1014.4 |
| 20260831140518 | 70 | 144 | 2.6 | 7.8 | 0.00 | 0.29 | 0.00 | 90 | 1014.3 |
| 20260831140016 | 70 | 124 | 4.3 | 7.8 | 0.00 | 0.29 | 0.00 | 90 | 1014.1 |
| 20260831135537 | 70 | 127 | 3.5 | 7.0 | 0.00 | 0.30 | 0.00 | 90 | 1014.1 |
| 20260831135016 | 71 | 143 | 0.9 | 2.6 | 0.00 | 0.30 | 0.00 | 90 | 1014.4 |
| 20260831134517 | 70 | 139 | 0.0 | 0.9 | 0.00 | 0.31 | 0.00 | 89 | 1014.5 |
| 20260831134017 | 70 | 146 | 0.0 | 0.9 | 0.00 | 0.31 | 0.00 | 88 | 1014.4 |
| 20260831133518 | 70 | 145 | 0.0 | 4.3 | 0.00 | 0.31 | 0.00 | 88 | 1014.4 |
| 20260831133017 | 71 | 134 | 0.9 | 4.3 | 0.00 | 0.32 | 0.00 | 88 | 1014.2 |
| 20260831132517 | 71 | 116 | 0.9 | 4.3 | 0.00 | 0.32 | 0.00 | 88 | 1014.1 |
| 20260831132017 | 71 | 94 | 2.6 | 5.2 | 0.00 | 0.33 | 0.00 | 87 | 1014.2 |
| 20260831131538 | 71 | 122 | 2.6 | 5.2 | 0.00 | 0.33 | 0.00 | 86 | 1014.2 |
| 20260831131038 | 71 | 139 | 1.7 | 4.3 | 0.00 | 0.33 | 0.00 | 86 | 1014.4 |
| 20260831130518 | 71 | 179 | 1.7 | 4.3 | 0.00 | 0.34 | 0.00 | 86 | 1014.6 |
| 20260831130017 | 71 | 193 | 0.0 | 3.5 | 0.00 | 0.34 | 0.00 | 86 | 1014.7 |
| 20260831125518 | 71 | 197 | 0.9 | 3.5 | 0.00 | 0.34 | 0.00 | 86 | 1014.6 |
| 20260831125017 | 71 | 193 | 0.9 | 3.5 | 0.00 | 0.35 | 0.00 | 87 | 1014.6 |
| 20260831124517 | 71 | 164 | 0.9 | 3.5 | 0.00 | 0.35 | 0.00 | 87 | 1014.5 |
| 20260831124016 | 71 | 216 | 0.9 | 5.2 | 0.00 | 0.35 | 0.00 | 87 | 1014.5 |
| 20260831123517 | 71 | 227 | 0.9 | 5.2 | 0.00 | 0.36 | 0.00 | 88 | 1014.5 |
| 20260831123017 | 71 | 193 | 0.9 | 4.3 | 0.00 | 0.36 | 0.00 | 88 | 1014.6 |
| 20260831122518 | 71 | 155 | 0.0 | 2.6 | 0.00 | 0.36 | 0.00 | 89 | 1014.3 |
| 20260831122017 | 71 | 205 | 0.0 | 2.6 | 0.00 | 0.36 | 0.00 | 89 | 1014.3 |
| 20260831121516 | 71 | 218 | 0.0 | 5.2 | 0.00 | 0.36 | 0.00 | 89 | 1014.2 |
| 20260831121016 | 70 | 186 | 2.6 | 5.2 | 0.00 | 0.37 | 0.00 | 90 | 1014.2 |
| 20260831120518 | 70 | 188 | 1.7 | 4.3 | 0.00 | 0.37 | 0.00 | 91 | 1014.2 |
| 20260831120016 | 70 | 177 | 0.9 | 7.0 | 0.00 | 0.37 | 0.00 | 92 | 1014.2 |
| 20260831115516 | 69 | 134 | 2.6 | 7.0 | 0.00 | 0.37 | 0.00 | 92 | 1013.9 |
| 20260831115017 | 69 | 125 | 2.6 | 4.3 | 0.00 | 0.37 | 0.00 | 92 | 1013.6 |
| 20260831114517 | 69 | 131 | 2.6 | 4.3 | 0.00 | 0.37 | 0.00 | 92 | 1013.6 |
| 20260831114038 | 68 | 130 | 1.7 | 3.5 | 0.00 | 0.37 | 0.00 | 92 | 1013.7 |
| 20260831113516 | 68 | 123 | 1.7 | 3.5 | 0.00 | 0.37 | 0.00 | 92 | 1013.6 |
| 20260831113016 | 68 | 125 | 0.9 | 2.6 | 0.00 | 0.37 | 0.00 | 92 | 1013.6 |
| 20260831112517 | 68 | 138 | 0.0 | 2.6 | 0.00 | 0.37 | 0.00 | 92 | 1013.7 |
| 20260831112017 | 68 | 139 | 0.9 | 3.5 | 0.00 | 0.37 | 0.00 | 92 | 1013.6 |
| 20260831111517 | 68 | 145 | 1.7 | 3.5 | 0.00 | 0.37 | 0.00 | 92 | 1013.5 |
| 20260831111016 | 68 | 140 | 0.9 | 2.6 | 0.00 | 0.37 | 0.00 | 92 | 1013.6 |
| 20260831110516 | 68 | 138 | 0.9 | 3.5 | 0.00 | 0.37 | 0.00 | 92 | 1013.6 |
| 20260831110016 | 68 | 143 | 0.9 | 3.5 | 0.00 | 0.38 | 0.00 | 92 | 1013.7 |
| 20260831105516 | 68 | 150 | 0.0 | 1.7 | 0.00 | 0.38 | 0.00 | 92 | 1013.8 |
| 20260831105016 | 68 | 156 | 0.0 | 0.9 | 0.00 | 0.38 | 0.00 | 92 | 1013.8 |
| 20260831104517 | 68 | 151 | 0.0 | 1.7 | 0.00 | 0.38 | 0.00 | 92 | 1013.9 |
| 20260831104016 | 68 | 172 | 0.0 | 2.6 | 0.00 | 0.38 | 0.00 | 92 | 1013.8 |
| 20260831103517 | 68 | 155 | 0.0 | 2.6 | 0.00 | 0.38 | 0.00 | 92 | 1013.8 |
| 20260831103038 | 68 | 160 | 0.9 | 3.5 | 0.00 | 0.38 | 0.00 | 92 | 1013.8 |
| 20260831102516 | 68 | 184 | 0.9 | 4.3 | 0.00 | 0.38 | 0.00 | 93 | 1013.8 |
| 20260831102016 | 68 | 164 | 0.9 | 4.3 | 0.00 | 0.38 | 0.00 | 93 | 1013.7 |
| 20260831101536 | 68 | 152 | 0.9 | 4.3 | 0.00 | 0.38 | 0.00 | 93 | 1013.7 |
| 20260831101016 | 68 | 156 | 0.9 | 4.3 | 0.00 | 0.38 | 0.00 | 93 | 1013.7 |
| 20260831100516 | 67 | 139 | 0.0 | 2.6 | 0.00 | 0.38 | 0.00 | 93 | 1013.8 |
| 20260831100016 | 67 | 128 | 0.0 | 2.6 | 0.00 | 0.38 | 0.00 | 92 | 1013.8 |
| 20260831095516 | 67 | 130 | 0.9 | 2.6 | 0.00 | 0.38 | 0.00 | 92 | 1013.8 |
| 20260831095037 | 67 | 133 | 0.0 | 1.7 | 0.00 | 0.38 | 0.00 | 92 | 1013.9 |
| 20260831094516 | 67 | 144 | 0.0 | 0.9 | 0.00 | 0.38 | 0.00 | 92 | 1013.9 |
| 20260831094017 | 67 | 155 | 0.0 | 1.7 | 0.00 | 0.38 | 0.00 | 92 | 1014.0 |
| 20260831093516 | 67 | 152 | 0.0 | 1.7 | 0.00 | 0.38 | 0.00 | 92 | 1013.9 |
| 20260831093036 | 67 | 147 | 0.0 | 1.7 | 0.00 | 0.39 | 0.00 | 92 | 1014.0 |
| 20260831092516 | 67 | 151 | 0.0 | 1.7 | 0.00 | 0.39 | 0.00 | 92 | 1013.9 |
| 20260831092016 | 67 | 160 | 0.0 | 3.5 | 0.00 | 0.39 | 0.00 | 92 | 1014.1 |
| 20260831091516 | 67 | 164 | 0.0 | 3.5 | 0.00 | 0.39 | 0.00 | 92 | 1014.1 |
| 20260831091016 | 67 | 152 | 0.0 | 1.7 | 0.00 | 0.39 | 0.00 | 92 | 1014.1 |
| 20260831090516 | 67 | 135 | 0.0 | 1.7 | 0.00 | 0.39 | 0.00 | 92 | 1014.0 |
| 20260831090016 | 67 | 127 | 0.9 | 2.6 | 0.00 | 0.39 | 0.00 | 92 | 1014.0 |
| 20260831085556 | 67 | 141 | 0.9 | 2.6 | 0.00 | 0.39 | 0.00 | 92 | 1014.0 |
| 20260831085016 | 67 | 0.0 | 0.0 | 0.00 | 0.39 | 0.00 | 91 | 1014.0 | |
| 20260831084537 | 67 | 0.0 | 0.0 | 0.00 | 0.39 | 0.00 | 91 | 1014.0 | |
| 20260831084016 | 67 | 0.0 | 0.0 | 0.00 | 0.39 | 0.00 | 91 | 1014.0 | |
| 20260831083516 | 67 | 0.0 | 0.0 | 0.00 | 0.39 | 0.00 | 91 | 1013.9 | |
| 20260831083016 | 67 | 0.0 | 0.0 | 0.00 | 0.39 | 0.00 | 91 | 1013.9 | |
| 20260831082536 | 68 | 0.0 | 0.0 | 0.00 | 0.39 | 0.00 | 90 | 1014.0 | |
| 20260831082016 | 68 | 0.0 | 0.0 | 0.00 | 0.39 | 0.00 | 90 | 1013.9 | |
| 20260831081536 | 68 | 0.0 | 0.0 | 0.00 | 0.39 | 0.00 | 90 | 1014.1 | |
| 20260831081036 | 68 | 0.0 | 0.0 | 0.00 | 0.39 | 0.00 | 90 | 1014.1 | |
| 20260831080516 | 68 | 0.0 | 0.0 | 0.00 | 0.39 | 0.00 | 90 | 1014.0 | |
| 20260831080037 | 68 | 0.0 | 0.0 | 0.00 | 0.39 | 0.00 | 89 | 1014.1 | |
| 20260831075516 | 69 | 0.0 | 0.0 | 0.00 | 0.39 | 0.00 | 89 | 1014.1 | |
| 20260831075016 | 69 | 0.0 | 0.0 | 0.00 | 0.39 | 0.00 | 90 | 1014.2 | |
| 20260831074516 | 69 | 0.0 | 0.0 | 0.00 | 0.39 | 0.00 | 90 | 1014.1 | |
| 20260831074017 | 69 | 0.0 | 0.0 | 0.00 | 0.39 | 0.00 | 90 | 1014.3 | |
| 20260831073536 | 69 | 0.0 | 1.7 | 0.00 | 0.39 | 0.00 | 90 | 1014.2 | |
| 20260831073016 | 69 | 138 | 0.0 | 2.6 | 0.00 | 0.39 | 0.00 | 89 | 1014.2 |
| 20260831072517 | 69 | 148 | 0.9 | 2.6 | 0.00 | 0.39 | 0.00 | 89 | 1014.2 |
| 20260831072016 | 69 | 138 | 0.0 | 2.6 | 0.00 | 0.39 | 0.00 | 89 | 1014.2 |
| 20260831071517 | 69 | 139 | 0.0 | 1.7 | 0.00 | 0.39 | 0.00 | 89 | 1014.2 |
| 20260831071016 | 69 | 155 | 0.0 | 0.9 | 0.00 | 0.39 | 0.00 | 89 | 1014.2 |
| 20260831070536 | 69 | 0.0 | 2.6 | 0.00 | 0.39 | 0.00 | 89 | 1014.3 | |
| 20260831070057 | 69 | 168 | 0.0 | 2.6 | 0.00 | 0.39 | 0.00 | 89 | 1014.3 |
| 20260831065515 | 69 | 194 | 0.0 | 2.6 | 0.00 | 0.39 | 0.00 | 89 | 1014.2 |
| 20260831065016 | 69 | 0.0 | 0.0 | 0.00 | 0.39 | 0.00 | 89 | 1014.2 | |
| 20260831064516 | 69 | 0.0 | 0.9 | 0.00 | 0.39 | 0.00 | 89 | 1014.2 | |
| 20260831064016 | 69 | 160 | 0.0 | 0.9 | 0.00 | 0.39 | 0.00 | 89 | 1014.1 |
| 20260831063516 | 69 | 155 | 0.0 | 2.6 | 0.00 | 0.39 | 0.00 | 89 | 1014.1 |
| 20260831063016 | 69 | 155 | 0.0 | 2.6 | 0.00 | 0.39 | 0.00 | 89 | 1014.1 |
| 20260831062516 | 69 | 136 | 0.0 | 1.7 | 0.00 | 0.39 | 0.00 | 89 | 1013.9 |
| 20260831062016 | 69 | 131 | 0.0 | 3.5 | 0.00 | 0.39 | 0.00 | 89 | 1013.8 |
| 20260831061517 | 69 | 144 | 0.9 | 3.5 | 0.00 | 0.39 | 0.00 | 89 | 1013.8 |
| 20260831061015 | 69 | 149 | 0.9 | 2.6 | 0.00 | 0.39 | 0.00 | 89 | 1013.7 |
| 20260831060517 | 69 | 150 | 0.0 | 3.5 | 0.00 | 0.39 | 0.00 | 89 | 1013.8 |
| 20260831060016 | 69 | 145 | 0.9 | 3.5 | 0.00 | 0.39 | 0.00 | 89 | 1013.8 |
| 20260831055516 | 69 | 150 | 0.9 | 3.5 | 0.00 | 0.39 | 0.00 | 89 | 1013.7 |
| 20260831055016 | 69 | 151 | 1.7 | 3.5 | 0.00 | 0.39 | 0.00 | 89 | 1014.0 |
| 20260831054516 | 69 | 160 | 0.9 | 5.2 | 0.00 | 0.39 | 0.00 | 89 | 1014.1 |
| 20260831054055 | 69 | 165 | 1.7 | 5.2 | 0.00 | 0.39 | 0.00 | 89 | 1014.1 |
| 20260831053516 | 69 | 147 | 1.7 | 5.2 | 0.00 | 0.39 | 0.00 | 89 | 1014.0 |
| 20260831053016 | 69 | 154 | 0.9 | 4.3 | 0.00 | 0.39 | 0.00 | 88 | 1014.0 |
| 20260831052516 | 69 | 137 | 0.9 | 3.5 | 0.00 | 0.39 | 0.00 | 88 | 1014.0 |
| 20260831052017 | 69 | 156 | 0.9 | 4.3 | 0.00 | 0.39 | 0.00 | 88 | 1014.2 |
| 20260831051516 | 69 | 150 | 0.9 | 4.3 | 0.00 | 0.39 | 0.00 | 88 | 1014.2 |
| 20260831051016 | 69 | 146 | 1.7 | 6.1 | 0.00 | 0.39 | 0.00 | 88 | 1014.1 |
| 20260831050515 | 69 | 147 | 2.6 | 6.1 | 0.00 | 0.39 | 0.00 | 88 | 1014.1 |
| 20260831050017 | 69 | 156 | 0.9 | 4.3 | 0.00 | 0.39 | 0.00 | 87 | 1014.2 |
| 20260831045536 | 69 | 154 | 0.9 | 5.2 | 0.00 | 0.39 | 0.00 | 87 | 1014.2 |
| 20260831045036 | 69 | 159 | 1.7 | 5.2 | 0.00 | 0.39 | 0.00 | 87 | 1014.2 |
| 20260831044515 | 69 | 153 | 1.7 | 5.2 | 0.00 | 0.39 | 0.00 | 87 | 1014.2 |
| 20260831044015 | 69 | 159 | 0.9 | 4.3 | 0.00 | 0.39 | 0.00 | 86 | 1014.2 |
| 20260831043515 | 70 | 146 | 2.6 | 6.1 | 0.00 | 0.39 | 0.00 | 86 | 1014.2 |
| 20260831043017 | 70 | 136 | 2.6 | 6.1 | 0.00 | 0.39 | 0.00 | 86 | 1014.1 |
| 20260831042515 | 70 | 148 | 0.9 | 4.3 | 0.00 | 0.39 | 0.00 | 85 | 1014.1 |
| 20260831042016 | 70 | 128 | 0.9 | 3.5 | 0.00 | 0.39 | 0.00 | 85 | 1014.2 |
| 20260831041515 | 70 | 130 | 1.7 | 4.3 | 0.00 | 0.39 | 0.00 | 85 | 1014.2 |
| 20260831041015 | 70 | 159 | 0.9 | 4.3 | 0.00 | 0.39 | 0.00 | 85 | 1014.2 |
| 20260831040534 | 70 | 157 | 0.9 | 0.9 | 0.00 | 0.39 | 0.00 | 85 | 1014.2 |
| 20260831040017 | 70 | 134 | 1.7 | 4.3 | 0.00 | 0.39 | 0.39 | 85 | 1014.0 |
| 20260831035516 | 70 | 139 | 0.0 | 5.2 | 0.00 | 0.39 | 0.39 | 85 | 1014.1 |
| 20260831035016 | 70 | 140 | 1.7 | 5.2 | 0.00 | 0.39 | 0.39 | 84 | 1014.1 |
| 20260831034536 | 70 | 132 | 1.7 | 5.2 | 0.00 | 0.39 | 0.39 | 84 | 1014.0 |
| 20260831034016 | 70 | 152 | 2.6 | 5.2 | 0.00 | 0.39 | 0.39 | 84 | 1014.1 |
| 20260831033516 | 70 | 157 | 1.7 | 5.2 | 0.00 | 0.39 | 0.39 | 84 | 1014.1 |
| 20260831033017 | 70 | 139 | 1.7 | 5.2 | 0.00 | 0.39 | 0.39 | 84 | 1014.0 |
| 20260831032617 | 70 | 124 | 2.6 | 5.2 | 0.00 | 0.39 | 0.39 | 84 | 1014.0 |
| 20260831032016 | 71 | 128 | 2.6 | 6.1 | 0.00 | 0.39 | 0.39 | 84 | 1014.0 |
| 20260831031516 | 71 | 152 | 2.6 | 7.8 | 0.00 | 0.39 | 0.39 | 84 | 1014.1 |
| 20260831031016 | 71 | 157 | 3.5 | 7.8 | 0.00 | 0.39 | 0.39 | 84 | 1014.2 |
| 20260831030516 | 71 | 155 | 1.7 | 7.8 | 0.00 | 0.39 | 0.39 | 84 | 1014.3 |
| 20260831030036 | 71 | 155 | 1.7 | 7.8 | 0.00 | 0.39 | 0.39 | 84 | 1014.2 |
| 20260831025556 | 71 | 179 | 1.7 | 5.2 | 0.00 | 0.39 | 0.39 | 84 | 1014.0 |
| 20260831025016 | 71 | 204 | 0.9 | 5.2 | 0.00 | 0.39 | 0.39 | 84 | 1014.2 |
| 20260831024516 | 71 | 224 | 0.0 | 3.5 | 0.00 | 0.39 | 0.39 | 85 | 1014.3 |
| 20260831024016 | 71 | 308 | 1.7 | 3.5 | 0.00 | 0.39 | 0.39 | 85 | 1014.1 |
| 20260831023516 | 71 | 53 | 1.7 | 7.8 | 0.00 | 0.39 | 0.39 | 85 | 1013.9 |
| 20260831023017 | 71 | 112 | 3.5 | 7.8 | 0.00 | 0.39 | 0.39 | 84 | 1013.5 |
| 20260831022517 | 71 | 121 | 1.7 | 4.3 | 0.00 | 0.39 | 0.39 | 84 | 1013.7 |
| 20260831022036 | 71 | 83 | 0.9 | 3.5 | 0.00 | 0.39 | 0.39 | 84 | 1013.8 |
| 20260831021516 | 71 | 117 | 1.7 | 5.2 | 0.00 | 0.39 | 0.39 | 84 | 1013.8 |
| 20260831021017 | 71 | 134 | 0.9 | 5.2 | 0.00 | 0.39 | 0.39 | 84 | 1013.8 |
| 20260831020517 | 71 | 159 | 2.6 | 6.1 | 0.00 | 0.39 | 0.39 | 84 | 1013.8 |
| 20260831020016 | 71 | 173 | 3.5 | 6.1 | 0.00 | 0.39 | 0.39 | 84 | 1013.9 |
| 20260831015516 | 71 | 170 | 2.6 | 6.1 | 0.00 | 0.39 | 0.39 | 83 | 1013.8 |
| 20260831015016 | 71 | 191 | 1.7 | 6.1 | 0.00 | 0.39 | 0.39 | 83 | 1014.0 |
| 20260831014516 | 72 | 217 | 2.6 | 5.2 | 0.00 | 0.39 | 0.39 | 83 | 1014.2 |
| 20260831014016 | 72 | 255 | 1.7 | 5.2 | 0.00 | 0.39 | 0.39 | 82 | 1014.2 |
| 20260831013516 | 72 | 257 | 0.9 | 4.3 | 0.00 | 0.39 | 0.39 | 83 | 1014.1 |
| 20260831013015 | 72 | 220 | 1.7 | 5.2 | 0.00 | 0.39 | 0.39 | 83 | 1014.0 |
| 20260831012516 | 72 | 202 | 1.7 | 5.2 | 0.00 | 0.39 | 0.39 | 82 | 1013.9 |
| 20260831012016 | 72 | 217 | 1.7 | 7.8 | 0.00 | 0.39 | 0.39 | 82 | 1013.8 |
| 20260831011517 | 72 | 202 | 2.6 | 7.8 | 0.00 | 0.39 | 0.39 | 82 | 1013.7 |
| 20260831011015 | 72 | 210 | 1.7 | 4.3 | 0.00 | 0.39 | 0.39 | 82 | 1013.7 |
| 20260831010537 | 72 | 227 | 1.7 | 4.3 | 0.00 | 0.39 | 0.39 | 82 | 1013.5 |
| 20260831010036 | 72 | 235 | 0.9 | 4.3 | 0.00 | 0.39 | 0.39 | 81 | 1013.5 |
| 20260831005516 | 72 | 232 | 1.7 | 4.3 | 0.00 | 0.39 | 0.39 | 81 | 1013.4 |
| 20260831005037 | 72 | 247 | 0.9 | 4.3 | 0.00 | 0.39 | 0.39 | 81 | 1013.3 |
| 20260831004516 | 72 | 199 | 1.7 | 4.3 | 0.00 | 0.39 | 0.39 | 81 | 1013.3 |
| 20260831004016 | 72 | 198 | 1.7 | 4.3 | 0.00 | 0.39 | 0.39 | 81 | 1013.2 |
| 20260831003516 | 73 | 192 | 1.7 | 3.5 | 0.00 | 0.39 | 0.39 | 81 | 1013.2 |
| 20260831003016 | 73 | 212 | 1.7 | 6.1 | 0.00 | 0.39 | 0.39 | 80 | 1013.3 |
| 20260831002517 | 73 | 230 | 2.6 | 6.1 | 0.00 | 0.39 | 0.39 | 79 | 1013.4 |
| 20260831002015 | 73 | 240 | 0.0 | 4.3 | 0.00 | 0.39 | 0.39 | 79 | 1013.3 |
| 20260831001516 | 73 | 242 | 0.9 | 4.3 | 0.00 | 0.39 | 0.39 | 79 | 1013.3 |
| 20260831001017 | 73 | 223 | 0.9 | 5.2 | 0.00 | 0.39 | 0.39 | 79 | 1013.3 |
| 20260831000516 | 73 | 243 | 0.9 | 6.1 | 0.00 | 0.39 | 0.39 | 79 | 1013.2 |
| 20260831000037 | 74 | 225 | 2.6 | 8.7 | 0.00 | 0.39 | 0.39 | 79 | 1013.3 |
| 20260830235515 | 74 | 238 | 5.2 | 12.2 | 0.00 | 0.39 | 0.39 | 78 | 1013.4 |
| 20260830235015 | 74 | 224 | 5.2 | 12.2 | 0.00 | 0.39 | 0.39 | 78 | 1013.4 |
| 20260830234516 | 74 | 235 | 4.3 | 11.3 | 0.00 | 0.39 | 0.39 | 78 | 1013.5 |
| 20260830234017 | 74 | 236 | 4.3 | 11.3 | 0.00 | 0.39 | 0.39 | 78 | 1013.5 |
| 20260830233535 | 74 | 233 | 4.3 | 9.6 | 0.00 | 0.39 | 0.39 | 77 | 1013.5 |
| 20260830233015 | 74 | 227 | 5.2 | 9.6 | 0.00 | 0.39 | 0.39 | 77 | 1013.4 |
| 20260830232516 | 74 | 227 | 4.3 | 9.6 | 0.00 | 0.39 | 0.39 | 77 | 1013.4 |